Location: Albany
(35.0170°S, 117.8920°E)
Time: 10:43:56
(UTC+08:00)

S-56A Canister/Altair - Pass Details

Date: 31 January 2021
Orbit: 631 x 2501 km, 38.9° (Epoch: 02 March)

Event Time Altitude Azimuth Distance (km) Brightness Sun altitude
Rises 20:22:19 0° 257° (WSW) 6,125 13.6 -12.8°
Reaches altitude 10° 20:29:17 10° 277° (W) 4,895 12.4 -14.0°
Maximum altitude 20:35:14 14° 303° (WNW) 4,256 11.6 -15.1°
Drops below altitude 10° 20:40:34 10° 331° (NNW) 4,254 11.2 -16.0°
Sets 20:45:51 0° 354° (N) 4,837 11.3 -16.8°
